Location: Jodlow
(50.1500°N, 16.7500°E)
Time: 19:34:04
(UTC+02:00)

O/OREOS (USA 219) - Pass Details

Date: 04 March 2024
Orbit: 621 x 646 km, 72.0° (Epoch: 22 May)

Event Time Altitude Azimuth Distance (km) Brightness Sun altitude
Exits shadow 05:10:46 13° 224° (SW) 1,845 ? -13.4°
Maximum altitude 05:14:47 56° 302° (WNW) 770 ? -12.8°
Drops below altitude 10° 05:19:20 10° 21° (NNE) 2,056 ? -12.1°
Sets 05:21:40 0° 26° (NNE) 2,970 ? -11.7°
